When you browse on this site, cookies collect data to enhance your experience and personalize the content and advertising you see.
Visit our Privacy Policy to learn more. By continuing to use the site, you agree to this use of cookies and data.
  • In Portugal
  • List of Countries
  • For 7 days
  • Water Temperature
  • Satellite Maps
  • Weather Map
  • Weather Widgets
  • user-avatar
    Login

    Hourly Weather Boma

    Today, 27 May, Monday

    Time Temperature Precipitation Wind Pressure Humidity
    00:00 +22°C° 0 mm 1 mps 699 mmHg 99%
    01:00 +22°C° 0 mm 1 mps 699 mmHg 99%
    02:00 +22°C° 0.6 mm 1 mps 699 mmHg 99%
    03:00 +20°C° 0.6 mm 0 mps 699 mmHg 99%
    04:00 +19°C° 0.6 mm 0 mps 699 mmHg 99%
    05:00 +20°C° 0.3 mm 0 mps 699 mmHg 99%
    06:00 +20°C° 0.3 mm 0 mps 700 mmHg 98%
    07:00 +20°C° 0.3 mm 0 mps 700 mmHg 98%
    08:00 +24°C° 0 mm 1 mps 700 mmHg 91%
    09:00 +25°C° 0 mm 1 mps 701 mmHg 83%
    10:00 +27°C° 0 mm 1 mps 701 mmHg 75%
    11:00 +28°C° 0 mm 1 mps 701 mmHg 70%
    12:00 +29°C° 0 mm 1 mps 701 mmHg 65%
    13:00 +30°C° 0 mm 1 mps 700 mmHg 60%
    14:00 +30°C° 0 mm 1 mps 700 mmHg 60%
    15:00 +31°C° 0 mm 1 mps 699 mmHg 59%
    16:00 +31°C° 0 mm 1 mps 698 mmHg 59%
    17:00 +27°C° 0 mm 0 mps 698 mmHg 66%
    18:00 +25°C° 0 mm 0 mps 699 mmHg 74%
    19:00 +23°C° 0 mm 0 mps 699 mmHg 81%
    20:00 +23°C° 0 mm 0 mps 699 mmHg 83%
    21:00 +23°C° 0 mm 0 mps 699 mmHg 84%
    22:00 +22°C° 0 mm 0 mps 700 mmHg 86%
    23:00 +22°C° 0.3 mm 0 mps 700 mmHg 89%

    Tomorrow, 28 May, Tuesday

    Time Temperature Precipitation Wind Pressure Humidity
    00:00 +23°C° 0.3 mm 1 mps 699 mmHg 92%
    01:00 +23°C° 0.3 mm 1 mps 699 mmHg 96%
    02:00 +22°C° 0 mm 1 mps 699 mmHg 97%
    03:00 +22°C° 0 mm 1 mps 699 mmHg 98%
    04:00 +22°C° 0 mm 1 mps 699 mmHg 99%
    05:00 +23°C° 0.1 mm 1 mps 699 mmHg 98%
    06:00 +23°C° 0.1 mm 1 mps 700 mmHg 97%
    07:00 +23°C° 0.1 mm 1 mps 700 mmHg 95%
    08:00 +24°C° 0 mm 1 mps 701 mmHg 92%
    09:00 +25°C° 0 mm 1 mps 701 mmHg 88%
    10:00 +25°C° 0 mm 1 mps 701 mmHg 85%
    11:00 +27°C° 0 mm 1 mps 701 mmHg 79%
    12:00 +28°C° 0 mm 1 mps 700 mmHg 73%
    13:00 +29°C° 0 mm 1 mps 700 mmHg 67%
    14:00 +30°C° 0 mm 1 mps 699 mmHg 64%
    15:00 +30°C° 0 mm 1 mps 699 mmHg 61%
    16:00 +31°C° 0 mm 1 mps 698 mmHg 58%
    17:00 +29°C° 0.1 mm 1 mps 698 mmHg 66%
    18:00 +27°C° 0.1 mm 1 mps 698 mmHg 75%
    19:00 +25°C° 0.1 mm 1 mps 698 mmHg 83%
    20:00 +25°C° 1.9 mm 1 mps 699 mmHg 88%
    21:00 +24°C° 1.9 mm 1 mps 700 mmHg 92%
    22:00 +21°C° 1.9 mm 0 mps 700 mmHg 97%
    23:00 +23°C° 0 mm 1 mps 700 mmHg 97%

    Day after tomorrow, 29 May, Wednesday

    Time Temperature Precipitation Wind Pressure Humidity
    00:00 +23°C° 0 mm 1 mps 700 mmHg 97%
    01:00 +23°C° 0 mm 1 mps 700 mmHg 98%
    02:00 +22°C° 0 mm 1 mps 700 mmHg 98%
    03:00 +20°C° 0 mm 0 mps 699 mmHg 99%
    04:00 +20°C° 0 mm 0 mps 699 mmHg 99%
    05:00 +20°C° 0 mm 0 mps 699 mmHg 99%
    06:00 +22°C° 0 mm 1 mps 700 mmHg 98%
    07:00 +23°C° 0 mm 1 mps 700 mmHg 98%
    08:00 +23°C° 0 mm 1 mps 700 mmHg 94%
    09:00 +24°C° 0 mm 1 mps 701 mmHg 90%
    10:00 +25°C° 0 mm 1 mps 701 mmHg 86%
    11:00 +27°C° 0 mm 1 mps 701 mmHg 78%
    12:00 +29°C° 0 mm 1 mps 701 mmHg 69%
    13:00 +30°C° 0 mm 1 mps 700 mmHg 60%
    14:00 +30°C° 0.4 mm 1 mps 699 mmHg 62%
    15:00 +31°C° 0.4 mm 1 mps 699 mmHg 64%
    16:00 +31°C° 0.4 mm 1 mps 698 mmHg 66%
    17:00 +28°C° 0.9 mm 1 mps 698 mmHg 76%
    18:00 +26°C° 0.9 mm 1 mps 699 mmHg 86%
    19:00 +24°C° 0.9 mm 1 mps 699 mmHg 95%
    20:00 +24°C° 0 mm 1 mps 699 mmHg 96%
    21:00 +23°C° 0 mm 1 mps 700 mmHg 97%
    22:00 +23°C° 0 mm 1 mps 700 mmHg 98%
    23:00 +23°C° 0.4 mm 1 mps 700 mmHg 99%

    30 May, Thursday

    Time Temperature Precipitation Wind Pressure Humidity
    00:00 +23°C° 0.4 mm 1 mps 700 mmHg 99%
    01:00 +22°C° 0.4 mm 1 mps 699 mmHg 99%
    02:00 +22°C° 0.4 mm 1 mps 699 mmHg 99%
    03:00 +22°C° 0.4 mm 1 mps 699 mmHg 99%
    04:00 +22°C° 0.4 mm 1 mps 699 mmHg 99%
    05:00 +22°C° 1.1 mm 1 mps 700 mmHg 99%
    06:00 +22°C° 1.1 mm 1 mps 700 mmHg 99%
    07:00 +22°C° 1.1 mm 1 mps 701 mmHg 99%
    08:00 +23°C° 0.1 mm 1 mps 701 mmHg 97%
    09:00 +24°C° 0.1 mm 1 mps 702 mmHg 96%
    10:00 +24°C° 0.1 mm 1 mps 702 mmHg 94%
    11:00 +26°C° 0.1 mm 1 mps 701 mmHg 85%
    12:00 +27°C° 0.1 mm 1 mps 701 mmHg 76%
    13:00 +29°C° 0.1 mm 1 mps 700 mmHg 68%
    14:00 +28°C° 0.6 mm 1 mps 700 mmHg 73%
    15:00 +28°C° 0.6 mm 1 mps 699 mmHg 79%
    16:00 +27°C° 0.6 mm 1 mps 699 mmHg 84%
    17:00 +26°C° 1.2 mm 1 mps 699 mmHg 88%
    18:00 +25°C° 1.2 mm 1 mps 699 mmHg 93%
    19:00 +21°C° 1.2 mm 0 mps 700 mmHg 97%
    20:00 +21°C° 1.8 mm 0 mps 700 mmHg 97%
    21:00 +23°C° 1.8 mm 1 mps 701 mmHg 98%
    22:00 +23°C° 1.8 mm 1 mps 701 mmHg 98%
    23:00 +22°C° 0 mm 1 mps 701 mmHg 98%

    31 May, Friday

    Time Temperature Precipitation Wind Pressure Humidity
    00:00 +22°C° 0 mm 1 mps 700 mmHg 99%
    01:00 +22°C° 0 mm 1 mps 700 mmHg 99%
    02:00 +22°C° 0 mm 1 mps 700 mmHg 99%
    03:00 +22°C° 0 mm 1 mps 699 mmHg 99%
    04:00 +20°C° 0 mm 0 mps 699 mmHg 99%
    05:00 +20°C° 0 mm 0 mps 700 mmHg 99%
    06:00 +20°C° 0 mm 0 mps 700 mmHg 99%
    07:00 +20°C° 0 mm 0 mps 701 mmHg 98%
    08:00 +22°C° 0.1 mm 0 mps 701 mmHg 91%
    09:00 +25°C° 0.1 mm 1 mps 702 mmHg 83%
    10:00 +27°C° 0.1 mm 1 mps 702 mmHg 76%
    11:00 +27°C° 0.8 mm 1 mps 702 mmHg 77%
    12:00 +26°C° 0.8 mm 0 mps 701 mmHg 79%
    13:00 +26°C° 0.8 mm 0 mps 700 mmHg 81%
    14:00 +27°C° 0.6 mm 0 mps 699 mmHg 77%
    15:00 +29°C° 0.6 mm 1 mps 699 mmHg 74%
    16:00 +30°C° 0.6 mm 1 mps 699 mmHg 70%
    17:00 +28°C° 0.4 mm 1 mps 699 mmHg 79%
    18:00 +26°C° 0.4 mm 1 mps 699 mmHg 88%
    19:00 +22°C° 0.4 mm 0 mps 699 mmHg 97%
    20:00 +21°C° 0.1 mm 0 mps 700 mmHg 97%
    21:00 +21°C° 0.1 mm 0 mps 700 mmHg 97%
    22:00 +21°C° 0.1 mm 0 mps 700 mmHg 98%
    23:00 +20°C° 0 mm 0 mps 700 mmHg 98%

    1 June, Saturday

    Time Temperature Precipitation Wind Pressure Humidity
    00:00 +20°C° 0 mm 0 mps 699 mmHg 98%
    01:00 +20°C° 0 mm 0 mps 699 mmHg 98%
    02:00 +20°C° 0 mm 0 mps 699 mmHg 98%
    03:00 +20°C° 0 mm 0 mps 699 mmHg 99%
    04:00 +19°C° 0 mm 0 mps 699 mmHg 99%
    05:00 +20°C° 0 mm 0 mps 699 mmHg 98%
    06:00 +20°C° 0 mm 0 mps 700 mmHg 98%
    07:00 +20°C° 0 mm 0 mps 700 mmHg 98%
    08:00 +22°C° 0 mm 0 mps 701 mmHg 90%
    09:00 +26°C° 0 mm 1 mps 701 mmHg 82%
    10:00 +27°C° 0 mm 1 mps 701 mmHg 75%
    11:00 +27°C° 1.4 mm 1 mps 701 mmHg 78%
    12:00 +28°C° 1.4 mm 1 mps 700 mmHg 81%
    13:00 +28°C° 1.4 mm 1 mps 699 mmHg 84%
    14:00 +26°C° 0.8 mm 0 mps 699 mmHg 84%
    15:00 +26°C° 0.8 mm 0 mps 698 mmHg 85%
    16:00 +26°C° 0.8 mm 0 mps 698 mmHg 85%
    17:00 +25°C° 0.4 mm 0 mps 698 mmHg 88%
    18:00 +23°C° 0.4 mm 0 mps 699 mmHg 91%
    19:00 +24°C° 0.4 mm 1 mps 699 mmHg 95%
    20:00 +21°C° 0 mm 0 mps 700 mmHg 95%
    21:00 +21°C° 0 mm 0 mps 700 mmHg 95%
    22:00 +21°C° 0 mm 0 mps 700 mmHg 94%
    23:00 +20°C° 0 mm 0 mps 699 mmHg 95%
    Show more